Location: C�mpuri de-Sus
(45.9500°N, 22.5500°E)
Time: 04:22:26
(UTC+00:00)

SKYMED 2 - Pass Details

Date: 24 October 2021
Orbit: 621 x 623 km, 97.9° (Epoch: 04 December)

Event Time Altitude Azimuth Distance (km) Brightness Sun altitude
Rises 17:01:05 0° 9° (N) 2,916 6.9 -16.8°
Reaches altitude 10° 17:03:18 10° 5° (N) 2,004 6.1 -17.1°
Maximum altitude 17:07:35 57° 288° (WNW) 734 4.2 -17.9°
Drops below altitude 10° 17:11:49 10° 209° (SSW) 1,988 6.5 -18.6°
Sets 17:14:01 0° 206° (SSW) 2,889 7.3 -19.0°
